Stations météo

Publicité
Agen, France (7524): Température de l'air & dewpoint: 24.03.2020 15:00:00 - 30.03.2020 15:00:00 (CEST)Agen, France (7524): Température de l'air 5cm: 24.03.2020 15:00:00 - 30.03.2020 15:00:00 (CEST)Agen, France (7524): Température de l'air -20cm & Température de l'air -100cm: 24.03.2020 15:00:00 - 30.03.2020 15:00:00 (CEST)Agen, France (7524): Vitesse du vent & gusts: 24.03.2020 15:00:00 - 30.03.2020 15:00:00 (CEST)Agen, France (7524): Direction du vent: 24.03.2020 15:00:00 - 30.03.2020 15:00:00 (CEST)Agen, France (7524): reduced air pressure: 24.03.2020 15:00:00 - 30.03.2020 15:00:00 (CEST)Agen, France (7524): visibility: 24.03.2020 15:00:00 - 30.03.2020 15:00:00 (CEST)Agen, France (7524): Ensoleillement: 24.03.2020 15:00:00 - 30.03.2020 15:00:00 (CEST)Agen, France (7524): Quantités de précipitations: 24.03.2020 15:00:00 - 30.03.2020 15:00:00 (CEST)
Date & Time tt [°C] td [°C] tt 5cm [°C] tt -20cm [°C] tt -100cm [°C] ff [km/h] ff [knt] fx [km/h] fx [knt] dd ppp [hPa] vv [km] sd [min] rr [mm]
30.03.2020 15:00:00 - - - - - - - - - - - - - -
30.03.2020 14:00:00 6,2 1,3 7,6 9,7 11,2 5 3 19 11 W 1018,7 45 4 0,0
30.03.2020 13:00:00 4,8 1,8 7,3 9,7 11,2 11 6 17 9 W 1019,1 35 0 0,0
30.03.2020 12:00:00 4,6 2,5 7,2 9,7 11,2 11 6 18 10 W 1019,4 29 0 0,0
30.03.2020 11:00:00 3,8 1,8 4,7 9,8 11,2 13 7 23 12 NW 1019,8 19 0 0,0
30.03.2020 10:00:00 3,3 0,7 3,7 9,8 11,2 15 8 26 14 NW 1019,5 12 0 0,0
30.03.2020 09:00:00 4,4 -0,6 3,6 9,9 11,2 16 9 25 14 NW 1019,2 37 0 0,0
30.03.2020 08:00:00 4,6 -0,6 3,5 9,9 11,2 14 8 24 13 NNW 1018,9 51 0 0,0
30.03.2020 07:00:00 4,7 -1,1 4,0 10,0 11,2 11 6 23 12 WNW 1018,7 60 0 0,0
30.03.2020 06:00:00 4,9 -1,3 4,1 10,1 11,2 14 7 26 14 WNW 1018,8 60 0 0,0
30.03.2020 05:00:00 5,3 -1,6 4,3 10,1 11,2 17 9 25 14 NW 1019,2 60 0 0,0
30.03.2020 04:00:00 5,2 0,8 4,2 10,2 11,2 13 7 21 11 WNW 1019,5 47 0 0,0
30.03.2020 03:00:00 5,2 0,8 4,0 10,3 11,2 9 5 24 13 WNW 1020,3 43 0 0,0
30.03.2020 02:00:00 5,3 0,5 4,0 10,3 11,2 16 9 51 28 NNE 1020,7 29 0 0,0
30.03.2020 01:00:00 5,6 0,4 4,6 10,4 11,2 15 8 32 17 N 1020,7 46 0 0,0
30.03.2020 00:00:00 5,5 1,0 4,0 10,4 11,2 16 9 36 19 N 1021,0 43 0 0,0
29.03.2020 23:00:00 4,9 1,0 4,2 10,5 11,2 14 8 34 18 N 1021,4 33 0 0,0
29.03.2020 22:00:00 5,6 0,6 5,2 10,5 11,2 23 13 43 23 N 1021,4 39 0 0,0
29.03.2020 21:00:00 7,2 0,2 6,1 10,5 11,2 21 12 41 22 N 1020,8 41 0 0,0
29.03.2020 20:00:00 7,8 0,3 7,1 10,5 11,3 24 13 46 25 N 1020,3 44 0 0,0
29.03.2020 19:00:00 9,5 1,9 10,3 10,4 11,2 26 14 41 22 N 1019,6 36 0 0,0
29.03.2020 18:00:00 11,6 3,4 13,8 10,3 11,2 23 12 42 23 N 1019,2 27 2 0,0
29.03.2020 17:00:00 12,5 4,9 16,1 10,2 11,2 24 13 37 20 NNW 1019,0 16 0 0,0
29.03.2020 16:00:00 13,3 5,4 17,2 10,1 11,2 23 13 40 22 NNW 1019,0 13 11 0,0
29.03.2020 15:00:00 14,5 6,3 21,9 10,0 11,2 24 13 37 20 NNW 1019,1 9 26 0,0
29.03.2020 14:00:00 13,9 6,5 23,1 10,0 11,2 21 12 34 18 NNW 1019,4 7 41 0,0
29.03.2020 13:00:00 13,4 7,6 24,6 10,1 11,3 15 8 30 16 WNW 1019,9 7 60 0,0
29.03.2020 12:00:00 11,5 7,0 19,0 10,0 11,2 14 8 25 13 WNW 1020,2 6 60 0,0
29.03.2020 11:00:00 9,5 6,0 11,2 10,1 11,2 13 7 23 12 WNW 1020,3 5 60 0,0
29.03.2020 10:00:00 8,4 6,5 6,3 10,1 11,3 13 7 18 10 W 1020,3 6 60 0,0
29.03.2020 09:00:00 5,9 4,4 0,4 10,2 11,3 6 3 9 5 W 1020,0 4,2 55 0,0
29.03.2020 08:00:00 4,0 2,0 0,4 10,3 11,3 4 2 14 7 NW 1019,9 5 0 0,0
29.03.2020 07:00:00 5,1 2,8 1,3 10,3 11,3 9 5 12 7 W 1019,5 6 0 0,0
29.03.2020 06:00:00 6,0 3,2 2,4 10,4 11,3 8 4 18 10 WSW 1019,5 8 0 0,0
29.03.2020 05:00:00 6,8 3,6 3,1 10,4 11,3 11 6 19 10 WSW 1019,4 10 0 0,0
29.03.2020 04:00:00 6,9 3,9 -0,2 10,4 11,2 9 5 13 7 WSW 1019,6 9 0 0,0
29.03.2020 03:00:00 7,6 3,1 0,5 10,5 11,3 8 5 12 6 WSW 1019,9 11 0 0,0
29.03.2020 02:00:00 8,1 3,2 1,0 10,5 11,3 7 4 10 6 W 1020,1 12 0 0,0
29.03.2020 01:00:00 9,0 3,4 2,4 10,5 11,3 8 4 16 8 W 1020,0 13 0 0,0
29.03.2020 00:00:00 9,1 2,9 2,6 10,5 11,3 11 6 14 8 WNW 1019,9 12 0 0,0
28.03.2020 23:00:00 9,4 3,4 0,8 10,5 11,3 9 5 12 6 W 1019,6 16 0 0,0
28.03.2020 22:00:00 10,1 2,0 2,8 10,4 11,3 6 3 14 7 W 1019,3 17 0 0,0
28.03.2020 21:00:00 12,6 2,4 5,7 10,3 11,3 8 4 11 6 W 1018,6 22 0 0,0
28.03.2020 20:00:00 13,7 2,9 9,6 10,2 11,3 9 5 26 14 NW 1018,2 23 58 0,0
28.03.2020 19:00:00 16,4 3,1 16,9 10,0 11,3 18 10 28 15 NW 1017,6 39 60 0,0
28.03.2020 18:00:00 17,5 3,0 25,9 9,9 11,3 15 8 27 15 NNW 1017,4 38 60 0,0
28.03.2020 17:00:00 17,5 2,6 31,0 9,7 11,3 14 8 23 12 NNW 1017,5 34 60 0,0
28.03.2020 16:00:00 17,4 1,4 33,1 9,6 11,3 11 6 23 12 NW 1017,8 19 60 0,0
28.03.2020 15:00:00 16,8 2,8 33,0 9,6 11,3 13 7 26 14 NW 1018,3 27 60 0,0
28.03.2020 14:00:00 15,8 2,9 33,5 9,5 11,3 10 5 22 12 WNW 1018,8 29 60 0,0
28.03.2020 13:00:00 14,8 3,9 29,5 9,5 11,3 8 5 19 10 NW 1019,2 20 60 0,0
28.03.2020 12:00:00 13,4 4,3 23,3 9,6 11,3 8 5 16 9 WNW 1019,4 20 60 0,0
28.03.2020 11:00:00 10,4 4,3 12,1 9,6 11,3 5 3 10 5 WNW 1019,5 12 60 0,0
28.03.2020 10:00:00 6,2 4,4 2,0 9,7 11,3 5 3 8 5 WNW 1019,3 12 60 0,0
28.03.2020 09:00:00 3,0 1,4 -3,3 9,8 11,3 3 1 10 5 NE 1019,1 11 48 0,0
28.03.2020 08:00:00 1,0 -0,8 -3,5 9,9 11,3 0 0 6 3 N 1018,6 13 0 0,0
28.03.2020 07:00:00 1,2 -0,7 -3,3 10,0 11,3 4 2 9 5 NNW 1017,9 14 0 0,0
28.03.2020 06:00:00 1,5 -0,6 -3,4 10,0 11,3 0 0 4 2 N 1017,7 15 0 0,0
28.03.2020 05:00:00 1,9 -0,5 -2,8 10,1 11,3 2 1 3 2 NNW 1017,6 15 0 0,0
28.03.2020 04:00:00 3,4 0,8 -2,6 10,1 11,3 2 1 4 2 WSW 1017,6 12 0 0,0
28.03.2020 03:00:00 3,3 0,2 -2,3 10,2 11,3 0 0 4 2 N 1017,6 15 0 0,0
28.03.2020 02:00:00 4,3 0,4 -1,7 10,3 11,4 3 1 6 3 NW 1017,6 16 0 0,0
28.03.2020 01:00:00 5,8 1,7 1,1 10,3 11,4 5 3 6 3 WNW 1017,4 13 0 0,0
28.03.2020 00:00:00 5,4 0,9 -0,1 10,3 11,3 4 2 6 3 NW 1017,3 16 0 0,0
27.03.2020 23:00:00 5,5 0,5 -0,1 10,3 11,4 5 3 7 4 SW 1016,9 17 0 0,0
27.03.2020 22:00:00 7,2 1,7 1,3 10,2 11,4 3 2 7 4 WSW 1016,5 18 0 0,0
27.03.2020 21:00:00 10,8 0,8 3,3 10,1 11,4 6 3 9 5 WSW 1015,9 19 0 0,0
27.03.2020 20:00:00 12,8 0,5 6,8 10,0 11,4 4 2 13 7 W 1015,4 22 6 0,0
27.03.2020 19:00:00 13,8 0,8 13,4 9,8 11,3 9 5 22 12 NNW 1014,9 19 43 0,0
27.03.2020 18:00:00 15,3 0,7 22,2 9,7 11,3 10 5 26 14 NNW 1014,5 30 58 0,0
27.03.2020 17:00:00 15,5 0,9 28,2 9,6 11,4 10 5 24 13 W 1014,6 35 60 0,0
27.03.2020 16:00:00 15,2 1,0 32,6 9,5 11,3 11 6 22 12 NW 1015,0 29 60 0,0
27.03.2020 15:00:00 14,6 0,8 31,3 9,4 11,3 11 6 25 13 NNW 1015,5 31 60 0,0
27.03.2020 14:00:00 13,9 0,5 29,3 9,4 11,4 12 7 26 14 N 1015,9 39 60 0,0
27.03.2020 13:00:00 12,6 4,5 24,2 9,4 11,4 11 6 23 12 WNW 1016,2 21 60 0,0
27.03.2020 12:00:00 10,8 5,1 18,1 9,5 11,4 15 8 25 14 WNW 1016,7 19 60 0,0
27.03.2020 11:00:00 7,8 6,9 9,6 9,6 11,4 8 4 13 7 WNW 1017,1 12 60 0,0
27.03.2020 10:00:00 3,4 2,5 0,1 9,6 11,4 4 2 8 4 NW 1017,0 11 45 0,0
27.03.2020 09:00:00 0,3 -0,6 -5,0 9,8 11,4 3 2 5 3 NW 1016,9 0,3 31 0,0
27.03.2020 08:00:00 -0,7 -1,7 -5,0 9,8 11,4 2 1 6 4 E 1016,4 6 0 0,0
27.03.2020 07:00:00 -0,7 -1,8 -4,6 9,9 11,4 5 3 9 5 WNW 1015,9 8 0 0,0
27.03.2020 06:00:00 -0,8 -1,9 -5,5 10,0 11,4 3 1 5 3 NNE 1016,0 13 0 0,0
27.03.2020 05:00:00 -0,3 -1,4 -5,3 10,1 11,4 2 1 5 3 SW 1015,9 13 0 0,0
27.03.2020 04:00:00 -0,1 -1,4 -5,0 10,2 11,4 3 2 6 3 NW 1015,7 13 0 0,0
27.03.2020 03:00:00 0,4 -1,0 -4,8 10,3 11,4 3 1 4 2 E 1015,9 16 0 0,0
27.03.2020 02:00:00 0,6 -1,0 -4,7 10,4 11,4 0 0 5 3 N 1015,4 20 0 0,0
27.03.2020 01:00:00 1,7 -0,1 -4,0 10,5 11,4 0 0 5 3 N 1015,3 16 0 0,0
27.03.2020 00:00:00 1,6 -0,7 -3,2 10,5 11,4 2 1 5 3 NNW 1015,2 18 0 0,0
26.03.2020 23:00:00 3,5 0,7 -2,8 10,5 11,4 0 0 6 4 N 1014,9 22 0 0,0
26.03.2020 22:00:00 4,8 1,3 -1,7 10,6 11,4 6 3 14 8 ESE 1014,6 29 0 0,0
26.03.2020 21:00:00 6,0 1,3 0,7 10,6 11,4 6 3 10 6 ESE 1013,9 24 0 0,0
26.03.2020 20:00:00 7,7 2,2 4,5 10,5 11,4 5 3 16 9 NE 1013,2 51 0 0,0
26.03.2020 19:00:00 8,7 2,3 7,9 10,5 11,4 10 5 27 15 N 1012,7 51 0 0,0
26.03.2020 18:00:00 10,1 2,4 10,7 10,4 11,4 11 6 23 13 NE 1012,1 53 0 0,0
26.03.2020 17:00:00 11,0 1,8 12,1 10,4 11,4 6 3 19 10 E 1011,5 56 0 0,0
26.03.2020 16:00:00 11,1 2,6 15,3 10,4 11,4 13 7 22 12 E 1011,2 46 14 0,0
26.03.2020 15:00:00 11,3 2,8 16,8 10,3 11,4 10 6 19 10 E 1011,2 60 5 0,0
26.03.2020 14:00:00 11,0 3,3 18,8 10,3 11,4 10 6 19 10 ESE 1011,3 30 13 0,0
26.03.2020 13:00:00 10,6 3,6 21,1 10,4 11,4 10 5 22 12 E 1011,6 40 51 0,0
26.03.2020 12:00:00 9,7 3,6 16,0 10,4 11,4 4 2 22 12 ESE 1012,0 22 53 0,0
26.03.2020 11:00:00 8,5 2,3 11,9 10,5 11,4 9 5 19 10 E 1011,9 25 60 0,0
26.03.2020 10:00:00 5,9 0,6 1,9 10,6 11,4 7 4 11 6 NW 1011,4 24 60 0,0
26.03.2020 09:00:00 3,3 0,2 -3,2 10,7 11,4 8 4 11 6 WNW 1010,9 22 50 0,0
26.03.2020 08:00:00 1,9 -2,2 -3,0 10,8 11,4 6 4 12 7 NW 1010,5 21 0 0,0
26.03.2020 07:00:00 2,9 -0,6 -2,1 10,9 11,4 9 5 16 8 W 1010,4 23 0 0,0
26.03.2020 06:00:00 3,7 -0,7 -2,6 10,9 11,4 11 6 17 9 W 1010,1 27 0 0,0
26.03.2020 05:00:00 4,5 -0,5 -0,8 11,0 11,4 8 4 13 7 W 1010,2 33 0 0,0
26.03.2020 04:00:00 6,4 1,3 2,2 11,0 11,4 10 5 14 8 W 1010,5 38 0 0,0
26.03.2020 03:00:00 5,9 0,8 0,1 11,1 11,4 5 3 13 7 WSW 1011,3 39 0 0,0
26.03.2020 02:00:00 6,8 0,5 2,0 11,1 11,4 7 4 17 9 WSW 1011,4 44 0 0,0
26.03.2020 01:00:00 8,2 1,8 -0,7 11,2 11,4 12 7 17 9 W 1011,9 44 0 0,0
26.03.2020 00:00:00 6,7 1,2 0,0 11,2 11,3 8 4 14 8 W 1012,4 32 0 0,0
25.03.2020 23:00:00 7,4 0,8 0,1 11,2 11,4 6 3 9 5 W 1012,6 37 0 0,0
25.03.2020 22:00:00 8,6 0,8 1,5 11,1 11,3 5 3 11 6 W 1012,9 24 0 0,0
25.03.2020 21:00:00 11,7 1,0 4,5 11,1 11,4 9 5 13 7 W 1012,6 41 0 0,0
25.03.2020 20:00:00 13,5 0,1 7,8 11,0 11,3 7 4 20 11 NNW 1012,6 59 52 0,0
25.03.2020 19:00:00 15,6 0,2 17,1 10,9 11,3 11 6 17 9 N 1012,7 39 60 0,0
25.03.2020 18:00:00 16,0 -0,3 23,7 10,8 11,3 9 5 22 12 NE 1013,1 52 60 0,0
25.03.2020 17:00:00 16,3 0,8 28,3 10,7 11,3 10 6 21 11 ESE 1013,6 60 60 0,0
25.03.2020 16:00:00 16,0 1,3 28,7 10,7 11,3 10 5 27 15 SE 1014,1 29 60 0,0
25.03.2020 15:00:00 15,5 1,6 28,1 10,7 11,3 14 8 29 15 E 1014,8 34 60 0,0
25.03.2020 14:00:00 15,3 1,8 26,3 10,7 11,3 17 9 37 20 ESE 1015,5 30 60 0,0
25.03.2020 13:00:00 14,0 2,2 22,8 10,7 11,3 18 10 33 18 ESE 1016,0 27 60 0,0
25.03.2020 12:00:00 12,5 3,2 18,6 10,8 11,3 21 11 32 17 E 1016,3 28 60 0,0
25.03.2020 11:00:00 10,9 3,0 11,7 10,9 11,3 19 10 35 19 ESE 1016,5 26 60 0,0
25.03.2020 10:00:00 8,6 2,2 7,0 11,0 11,3 27 14 37 20 ESE 1016,5 55 60 0,0
25.03.2020 09:00:00 7,0 3,1 3,5 11,0 11,3 18 10 26 14 ESE 1016,6 60 48 0,0
25.03.2020 08:00:00 5,3 2,5 3,0 11,1 11,3 15 8 22 12 ESE 1016,6 52 0 0,0
25.03.2020 07:00:00 5,7 2,5 3,3 11,2 11,3 15 8 27 14 ESE 1016,6 47 0 0,0
25.03.2020 06:00:00 5,4 3,2 3,1 11,3 11,3 16 9 23 13 ESE 1016,6 39 0 0,0
25.03.2020 05:00:00 5,8 3,5 3,8 11,3 11,3 14 7 22 12 E 1016,9 33 0 0,0
25.03.2020 04:00:00 6,0 3,7 3,5 11,4 11,3 13 7 21 11 ESE 1017,2 34 0 0,0
25.03.2020 03:00:00 6,0 3,3 3,3 11,4 11,3 13 7 19 10 ESE 1017,5 35 0 0,0
25.03.2020 02:00:00 7,5 4,3 5,8 11,4 11,3 14 8 21 12 ESE 1017,6 35 0 0,0
25.03.2020 01:00:00 8,4 4,2 6,6 11,5 11,3 13 7 29 15 ESE 1017,9 36 0 0,0
25.03.2020 00:00:00 9,7 5,5 6,8 11,5 11,3 16 8 25 14 ESE 1018,0 39 0 0,0
24.03.2020 23:00:00 10,4 5,2 6,3 11,5 11,3 16 9 34 19 ESE 1017,8 38 0 0,0
24.03.2020 22:00:00 10,1 5,1 2,7 11,4 11,3 8 4 22 12 SE 1017,5 27 0 0,0
24.03.2020 21:00:00 12,0 4,2 4,4 11,3 11,3 0 0 10 6 N 1017,3 13 0 0,0
24.03.2020 20:00:00 15,6 4,0 11,0 11,2 11,3 6 3 14 7 S 1017,2 46 54 0,0
24.03.2020 19:00:00 17,3 5,2 19,5 11,1 11,3 6 3 20 11 E 1017,1 45 57 0,0
24.03.2020 18:00:00 17,9 5,1 22,7 11,0 11,3 9 5 26 14 SE 1017,5 40 55 0,0
24.03.2020 17:00:00 17,7 6,8 20,5 10,9 11,3 10 6 25 13 ESE 1018,2 33 25 0,0
24.03.2020 16:00:00 18,3 5,5 27,2 10,8 11,3 9 5 26 14 E 1018,9 20 55 0,0
24.03.2020 15:00:00 - - - - - - - - - - - - - -

tt = Température de l'air
td = dewpoint
tt 5cm = Température de l'air 5cm
tt -20cm = Température de l'air -20cm
tt -100cm = Température de l'air -100cm
ff = Vitesse du vent
fx = gusts
dd = Direction du vent
ppp = reduced air pressure
vv = visibility
sd = Ensoleillement
rr = Quantités de précipitations

stations d'obs. à proximité